Weather History for Jackson, WY

Change the Weather History Date:

Wednesday, February 19, 2014

  Actual Average Record
Temperature  
Mean Temperature 26 °F -  
Max Temperature 33 °F 33 °F 48 °F (1986)
Min Temperature 19 °F 5 °F -21 °F (1990)
Degree Days  
Heating Degree Days 39    
Moisture  
Dew Point 17 °F    
Average Humidity 68    
Maximum Humidity 100    
Minimum Humidity 29    
Precipitation  
Precipitation 0.00 in - - ()
Sea Level Pressure  
Sea Level Pressure 29.73 in    
Wind  
Wind Speed 14 mph (SSW)    
Max Wind Speed 29 mph    
Max Gust Speed 36 mph    
Visibility 7 miles    
Events Snow    
Averages and records for this station are not official NWS values.
T = Trace of Precipitation, MM = Missing Value Source: NWS Daily Summary

Daily Weather History Graph

Daily Weather History Graph

Search for Another Location

Airport:

Trip Planner

Search our weather history database for the weather conditions in past years. The results will help you decide how hot, cold, wet, or windy it might be!

Date:

Astronomy

Feb. 19, 2014 Rise Set
Actual Time 7:15 AM MST 5:58 PM MST
Civil Twilight 6:46 AM MST 6:27 PM MST
Nautical Twilight 6:12 AM MST 7:01 PM MST
Astronomical Twilight 5:39 AM MST 7:34 PM MST
Moon 11:06 PM MST (2/19) 9:13 AM MST (2/19)
Length of Visible Light 11h 41m
Length of Day
10h 43m
Waning Gibbous, 79% of the Moon is Illuminated
Feb 19
Waning Gibbous
Feb 22
Last Quarter
Mar 1
New
Mar 8
First Quarter
Mar 16
Full

Hourly Weather History & Observations

Time (MST) Temp. Windchill Dew Point Humidity Pressure Visibility Wind Dir Wind Speed Gust Speed Precip Events Conditions
12:15 AM 32.0 °F 23.0 °F 23.0 °F 69% 29.85 in 10.0 mi South 11.5 mph - N/A   Overcast
12:35 AM 32.0 °F 24.2 °F 21.2 °F 64% 29.84 in 10.0 mi SSW 9.2 mph - N/A   Overcast
12:55 AM 32.0 °F 23.0 °F 21.2 °F 64% 29.83 in 10.0 mi SSW 11.5 mph - N/A   Overcast
1:15 AM 32.0 °F 22.1 °F 21.2 °F 64% 29.81 in 10.0 mi SSW 13.8 mph - N/A   Overcast
1:35 AM 32.0 °F 23.0 °F 21.2 °F 64% 29.80 in 10.0 mi SSW 11.5 mph - N/A   Overcast
1:55 AM 30.2 °F 21.9 °F 23.0 °F 75% 29.78 in 10.0 mi SSW 9.2 mph - N/A   Overcast
2:15 AM 32.0 °F 21.6 °F 21.2 °F 64% 29.76 in 10.0 mi South 15.0 mph - N/A   Overcast
2:35 AM 33.8 °F 24.8 °F 19.4 °F 56% 29.75 in 10.0 mi SSW 12.7 mph - N/A   Overcast
2:55 AM 33.8 °F 21.9 °F 19.4 °F 56% 29.73 in 10.0 mi South 21.9 mph 25.3 mph N/A   Overcast
3:15 AM 33.8 °F 23.2 °F 19.4 °F 56% 29.71 in 10.0 mi South 17.3 mph 21.9 mph N/A   Overcast
3:35 AM 33.8 °F 22.8 °F 19.4 °F 56% 29.69 in 10.0 mi South 18.4 mph - N/A   Overcast
3:55 AM 33.8 °F 22.8 °F 19.4 °F 56% 29.68 in 10.0 mi South 18.4 mph - N/A   Mostly Cloudy
4:15 AM 32.0 °F 18.4 °F 24.8 °F 75% 29.68 in 5.0 mi SSW 26.5 mph 34.5 mph N/A   Overcast
4:35 AM 30.2 °F 15.9 °F 26.6 °F 86% 29.68 in 1.5 mi South 26.5 mph 35.7 mph N/A   Overcast
4:55 AM 30.2 °F 15.4 °F 26.6 °F 86% 29.66 in 1.5 mi South 28.8 mph 34.5 mph N/A   Overcast
5:15 AM 30.2 °F 16.2 °F 26.6 °F 86% 29.65 in 9.0 mi South 25.3 mph 31.1 mph N/A   Overcast
5:35 AM 30.2 °F 15.7 °F 28.4 °F 93% 29.64 in 1.5 mi South 27.6 mph 33.4 mph N/A   Overcast
5:55 AM 28.4 °F 14.4 °F 28.4 °F 100% 29.64 in 0.8 mi South 23.0 mph 29.9 mph N/A   Overcast
6:15 AM 28.4 °F 15.1 °F 28.4 °F 100% 29.62 in 1.5 mi South 20.7 mph - N/A   Overcast
6:35 AM 28.4 °F 14.1 °F 28.4 °F 100% 29.60 in 1.8 mi South 24.2 mph - N/A   Overcast
6:51 AM 30.2 °F 16.5 °F 28.4 °F 93% 29.59 in 3.0 mi South 24.2 mph - N/A Snow Light Snow
7:15 AM 30.2 °F 15.7 °F 28.4 °F 93% 29.59 in 1.0 mi South 27.6 mph 35.7 mph N/A Snow Light Snow
7:54 AM 30.2 °F 16.5 °F 30.2 °F 100% 29.59 in 0.8 mi South 24.2 mph 29.9 mph N/A Snow Light Snow
8:14 AM 30.2 °F 16.8 °F 30.2 °F 100% 29.59 in 0.5 mi South 23.0 mph 29.9 mph N/A Snow Light Snow
8:51 AM 30.2 °F 17.4 °F 30.2 °F 100% 29.59 in 0.8 mi South 20.7 mph 26.5 mph N/A Snow Light Snow
9:27 AM 26.6 °F 16.2 °F 26.6 °F 100% 29.62 in 0.2 mi WSW 11.5 mph 17.3 mph N/A Snow Heavy Snow
9:51 AM 26.6 °F 14.3 °F 24.8 °F 93% 29.64 in 0.2 mi West 16.1 mph 25.3 mph N/A Snow Heavy Snow
10:07 AM 24.8 °F 13.4 °F 21.2 °F 86% 29.67 in 0.5 mi West 12.7 mph 27.6 mph N/A Snow Light Snow
10:30 AM 24.8 °F 14.0 °F 19.4 °F 80% 29.69 in 1.5 mi West 11.5 mph 19.6 mph N/A Snow Light Snow
10:52 AM 24.8 °F 14.0 °F 19.4 °F 80% 29.72 in 2.0 mi ESE 11.5 mph - N/A Snow Light Snow
11:22 AM 24.8 °F 19.1 °F 14.0 °F 64% 29.71 in 5.0 mi ENE 4.6 mph - N/A Snow Light Snow
11:58 AM 26.6 °F - 8.6 °F 47% 29.71 in 10.0 mi Calm Calm - N/A   Mostly Cloudy
12:59 PM 26.6 °F 21.2 °F 1.4 °F 34% 29.69 in 10.0 mi East 4.6 mph - N/A   Scattered Clouds
1:58 PM 28.4 °F 23.3 °F -0.4 °F 29% 29.70 in 10.0 mi WSW 4.6 mph - N/A   Partly Cloudy
2:53 PM 26.6 °F 19.1 °F 1.4 °F 34% 29.70 in 10.0 mi West 6.9 mph - N/A   Overcast
3:55 PM 24.8 °F 19.1 °F 8.6 °F 50% 29.72 in 10.0 mi West 4.6 mph 11.5 mph N/A   Overcast
4:54 PM 24.8 °F 16.9 °F 6.8 °F 46% 29.72 in 10.0 mi South 6.9 mph - N/A   Overcast
6:21 PM 23.0 °F 15.8 °F 10.4 °F 59% 29.76 in 10.0 mi WSW 5.8 mph - N/A   Overcast
6:56 PM 23.0 °F 8.7 °F 8.6 °F 54% 29.77 in 10.0 mi West 18.4 mph 27.6 mph N/A   Overcast
7:52 PM 21.2 °F 8.9 °F 5.0 °F 50% 29.81 in 10.0 mi West 12.7 mph - N/A   Overcast
8:55 PM 21.2 °F 12.6 °F 3.2 °F 46% 29.84 in 10.0 mi West 6.9 mph - N/A   Mostly Cloudy
9:15 PM 21.2 °F - 5.0 °F 50% 29.85 in 10.0 mi Calm Calm - N/A   Overcast
9:35 PM 21.2 °F 14.9 °F 3.2 °F 46% 29.86 in 10.0 mi SW 4.6 mph - N/A   Overcast
9:55 PM 21.2 °F - 6.8 °F 54% 29.87 in - Calm Calm - N/A   Overcast
10:15 PM 19.4 °F 6.0 °F 8.6 °F 63% 29.87 in 9.0 mi NW 13.8 mph 19.6 mph N/A   Mostly Cloudy
10:35 PM 21.2 °F 14.9 °F 6.8 °F 54% 29.88 in 10.0 mi SW 4.6 mph - N/A   Overcast
10:55 PM 19.4 °F 10.4 °F 8.6 °F 63% 29.89 in 10.0 mi NNW 6.9 mph - N/A   Overcast
11:15 PM 19.4 °F 12.8 °F 8.6 °F 63% 29.90 in 8.0 mi West 4.6 mph - N/A   Overcast
11:35 PM 19.4 °F 1.8 °F 5.0 °F 54% 29.89 in 7.0 mi NW 25.3 mph 32.2 mph N/A   Mostly Cloudy
11:55 PM 19.4 °F - 5.0 °F 54% 29.91 in 10.0 mi Calm Calm - N/A   Overcast